[[{"header":{"parameterUnit":"m.s-1","parameterCategory":1,"la1":30.2991,"la2":30.254,"lo1":-89.0895,"lo2":-89.0444,"dy":0.0017,"dx":0.0017,"nx":28,"ny":28,"refTime":"2024-05-04T03:00:00:Z","depth":0,"parameterNumber":2,"parameterNumberName":"U-component_of_WINDS"},"data":[0,0,0,0,0,0,0,0,0,0,0,0,0,0,0,0,0,0,0,0,0,0,0,0,0,0,0,0,0,0,0,0,0,0,0,0,0,0,0,0,0,0,0,0,0,0,0,0,0,0,0,0,0,0,0,0,0,0,-0.5709,-0.5708,0,-0.5684,-0.5683,-0.5683,-0.5641,-0.5641,-0.564,-0.5639,-0.5615,-0.5615,-0.5615,0,0,0,0,0,0,0,0,0,0,0,0,0,-0.5722,-0.5722,-0.5709,-0.5708,-0.5708,-0.5684,-0.5683,-0.5683,-0.5641,-0.5641,-0.564,-0.5639,-0.5615,-0.5615,-0.5615,0,0,0,0,0,0,0,0,0,0,0,0,0,-0.5709,-0.5722,-0.5709,-0.5684,-0.5682,-0.5684,-0.5683,-0.5683,-0.5642,-0.564,-0.5639,-0.5638,-0.5615,-0.5615,-0.5615,-0.5639,0,0,-0.5616,-0.5616,0,0,0,0,0,0,0,0,-0.571,-0.5708,-0.5688,-0.5686,-0.5683,-0.5664,-0.5679,-0.5668,-0.5642,-0.5657,-0.5639,-0.5638,-0.5632,-0.5631,-0.5629,-0.5638,-0.5637,-0.5616,-0.5616,-0.5616,-0.5616,0,0,0,0,0,0,0,-0.5711,-0.5709,-0.5699,-0.5688,-0.5685,-0.5675,-0.5672,-0.5677,-0.5652,-0.5656,-0.5652,-0.565,-0.5631,-0.5629,-0.5628,-0.5637,-0.5616,-0.5616,-0.5616,-0.5616,-0.5665,-0.5666,0,0,0,0,0,0,-0.5715,-0.571,-0.57,-0.5698,-0.5694,-0.5676,-0.5672,-0.5672,-0.5651,-0.5647,-0.5651,-0.5648,-0.5629,-0.5628,-0.5627,-0.5655,-0.5616,-0.5616,-0.5616,-0.5664,-0.5666,-0.5667,0,0,0,0,0,0,-0.5715,-0.5714,-0.5701,-0.5703,-0.5701,-0.5677,-0.5676,-0.5672,-0.567,-0.5648,-0.5643,-0.5654,-0.5628,-0.5627,-0.5637,-0.5653,-0.5616,-0.5616,-0.5663,-0.5664,-0.5666,-0.571,0,0,0,0,0,0,-0.5716,-0.5715,-0.5723,-0.5704,-0.5701,-0.571,-0.5677,-0.5672,-0.567,-0.5666,-0.5649,-0.5645,-0.5627,-0.5637,-0.5637,-0.5653,-0.5616,-0.5661,-0.5663,-0.5666,-0.5707,-0.5713,-0.5718,0,0,0,0,0,-0.5717,-0.5737,-0.5724,-0.5723,-0.5711,-0.5711,-0.571,-0.5688,-0.5671,-0.568,-0.5666,-0.5646,-0.5651,-0.5638,-0.5638,-0.5654,-0.566,-0.5663,-0.5665,-0.5704,-0.5711,-0.5718,0,0,0,0,0,0,-0.5759,-0.5734,-0.5719,-0.5733,-0.5725,-0.5704,-0.5714,-0.5696,-0.5693,-0.5689,-0.5663,-0.566,-0.5673,-0.5664,-0.565,-0.5677,-0.5652,-0.5655,-0.5682,-0.5689,-0.5694,-0.5696,-0.5616,0,0,0,0,0,-0.577,-0.5772,-0.575,-0.5765,-0.5761,-0.5739,-0.5738,-0.5722,-0.5712,-0.5708,-0.5695,-0.5687,-0.5687,-0.5687,-0.5686,-0.5705,-0.5701,-0.5716,-0.5722,-0.5726,-0.5729,-0.574,-0.5746,-0.5676,-0.5676,-0.5676,0,0,-0.5793,-0.5779,-0.5782,-0.5773,-0.5764,-0.5767,-0.5736,-0.574,-0.5743,-0.5709,-0.5718,-0.5708,-0.5697,-0.5711,-0.5717,-0.5705,-0.5748,-0.573,-0.5734,-0.5734,-0.5743,-0.575,-0.5756,-0.5678,-0.5678,-0.5677,0,0,-0.5837,-0.5826,-0.5837,-0.5829,-0.5817,-0.5802,-0.5804,-0.5786,-0.5779,-0.5786,-0.5762,-0.5764,-0.5764,-0.5758,-0.5754,-0.5796,-0.5777,-0.5796,-0.5826,-0.5836,-0.5842,-0.5846,-0.5862,-0.5868,-0.5799,-0.5799,-0.5799,0,-0.5867,-0.587,-0.5846,-0.5852,-0.5849,-0.5818,-0.583,-0.5824,-0.5811,-0.581,-0.5796,-0.5796,-0.5786,-0.5799,-0.581,-0.5808,-0.5811,-0.5798,-0.5843,-0.5847,-0.5851,-0.5866,-0.5872,-0.5801,-0.5801,-0.5801,-0.5801,0,-0.5908,-0.5911,-0.5922,-0.591,-0.5908,-0.5918,-0.5895,-0.5896,-0.5881,-0.5868,-0.5876,-0.5864,-0.586,-0.5861,-0.5846,-0.5873,-0.5865,-0.5847,-0.5823,-0.5861,-0.5874,-0.5879,-0.5805,-0.5804,-0.5803,-0.5803,0,0,-0.5979,-0.5953,-0.5958,-0.5952,-0.5936,-0.5938,-0.5946,-0.5941,-0.5943,-0.5936,-0.5942,-0.5943,-0.5926,-0.5923,-0.5907,-0.5916,-0.595,-0.5896,-0.5896,-0.5908,-0.5979,-0.5994,-0.6,-0.5937,-0.5938,-0.5939,-0.598,0,-0.6019,-0.6031,-0.6009,-0.6026,-0.6029,-0.6,-0.6007,-0.5998,-0.5986,-0.5987,-0.5974,-0.5975,-0.5952,-0.595,-0.5958,-0.5944,-0.5964,-0.5941,-0.5944,-0.5944,-0.5948,-0.6007,-0.6022,-0.6062,-0.5985,-0.5986,-0.5987,0,-0.6068,-0.6063,-0.608,-0.6063,-0.6064,-0.607,-0.6065,-0.6065,-0.6055,-0.6046,-0.6042,-0.6023,-0.603,-0.6006,-0.6016,-0.6,-0.6,-0.5994,-0.5995,-0.5995,-0.5969,-0.601,-0.6074,-0.608,-0.5995,-0.5994,-0.5993,0,-0.6119,-0.6116,-0.6126,-0.6122,-0.6102,-0.6108,-0.61,-0.6088,-0.6087,-0.6082,-0.6081,-0.6078,-0.6076,-0.6074,-0.6054,-0.6038,-0.6067,-0.6041,-0.606,-0.6061,-0.6068,-0.6068,-0.6134,-0.6067,-0.6067,-0.6067,-0.6067,0,-0.6167,-0.6179,-0.6148,-0.6155,-0.6168,-0.6143,-0.6156,-0.6146,-0.6136,-0.614,-0.6114,-0.6119,-0.6093,-0.6095,-0.608,-0.6091,-0.609,-0.6083,-0.6079,-0.6086,-0.6087,-0.6086,-0.6083,-0.6068,-0.6068,-0.6068,-0.6068,0,-0.6226,-0.6206,-0.6215,-0.6195,-0.6191,-0.6201,-0.6185,-0.619,-0.6176,-0.6182,-0.6182,-0.616,-0.6161,-0.6142,-0.6139,-0.6129,-0.6147,-0.6138,-0.6151,-0.6148,-0.6169,-0.6167,-0.6237,-0.6245,-0.6172,-0.6173,-0.6174,0,-0.6259,-0.6267,-0.6248,-0.6249,-0.6242,-0.6244,-0.6242,-0.6218,-0.6218,-0.6207,-0.6214,-0.6213,-0.6211,-0.6214,-0.6198,-0.6196,-0.6187,-0.6212,-0.6187,-0.6194,-0.6189,-0.6189,-0.619,-0.6217,-0.6218,-0.6219,-0.622,0,-0.6319,-0.6309,-0.6307,-0.6302,-0.6301,-0.6296,-0.629,-0.6292,-0.6266,-0.6267,-0.6268,-0.6266,-0.6263,-0.6263,-0.6258,-0.625,-0.6231,-0.6228,-0.6232,-0.624,-0.6247,-0.6244,-0.6166,-0.6226,-0.6226,-0.6225,-0.6225,-0.6225,-0.6366,-0.6373,-0.6361,-0.636,-0.6352,-0.6347,-0.6351,-0.6338,-0.6338,-0.6333,-0.6319,-0.6322,-0.6312,-0.6303,-0.6297,-0.63,-0.6288,-0.6294,-0.6296,-0.6298,-0.6302,-0.6246,-0.6299,-0.6298,-0.6298,-0.6298,-0.6298,0,-0.6426,-0.6417,-0.6416,-0.6408,-0.6408,-0.6389,-0.6381,-0.6382,-0.6385,-0.6377,-0.6375,-0.6376,-0.6376,-0.636,-0.6358,-0.6363,-0.6354,-0.6363,-0.6363,-0.6362,-0.6313,-0.6309,-0.637,-0.637,-0.637,-0.637,-0.637,-0.637,-0.6457,-0.6467,-0.6456,-0.6462,-0.6452,-0.6455,-0.6452,-0.6447,-0.6441,-0.6443,-0.6442,-0.6431,-0.642,-0.6417,-0.6416,-0.6411,-0.6412,-0.6425,-0.6417,-0.6372,-0.6365,-0.6358,-0.6355,-0.6425,-0.6425,-0.6466,-0.6466,-0.6467]},{"header":{"parameterUnit":"m.s-1","parameterCategory":1,"la1":30.2991,"la2":30.254,"lo1":-89.0895,"lo2":-89.0444,"dy":0.0017,"dx":0.0017,"nx":28,"ny":28,"refTime":"2024-05-04T03:00:00:Z","depth":0,"parameterNumber":3,"parameterNumberName":"V-component_of_WINDS"},"data":[0,0,0,0,0,0,0,0,0,0,0,0,0,0,0,0,0,0,0,0,0,0,0,0,0,0,0,0,0,0,0,0,0,0,0,0,0,0,0,0,0,0,0,0,0,0,0,0,0,0,0,0,0,0,0,0,0,0,2.3214,2.3214,0,2.3228,2.3228,2.3229,2.3207,2.3207,2.3206,2.3205,2.3219,2.322,2.3221,0,0,0,0,0,0,0,0,0,0,0,0,0,2.3166,2.3167,2.3214,2.3214,2.3214,2.3228,2.3228,2.3229,2.3207,2.3207,2.3206,2.3205,2.3218,2.322,2.3221,0,0,0,0,0,0,0,0,0,0,0,0,0,2.3184,2.3167,2.3213,2.3205,2.3205,2.3228,2.3228,2.3229,2.3208,2.3207,2.3205,2.3204,2.3218,2.3219,2.3221,2.3253,0,0,2.3226,2.3226,0,0,0,0,0,0,0,0,2.3183,2.3186,2.3206,2.3206,2.3205,2.3215,2.3217,2.3237,2.3208,2.3206,2.3205,2.3204,2.3218,2.322,2.3225,2.3254,2.3254,2.3226,2.3227,2.3228,2.3228,0,0,0,0,0,0,0,2.3182,2.3185,2.3219,2.3206,2.3206,2.32,2.3202,2.322,2.3218,2.3206,2.3205,2.3207,2.3218,2.3223,2.3225,2.3254,2.3226,2.3227,2.3228,2.3229,2.3311,2.3312,0,0,0,0,0,0,2.3182,2.3184,2.3219,2.322,2.3191,2.3202,2.3204,2.3213,2.3218,2.3218,2.3208,2.3206,2.3221,2.3223,2.3225,2.3264,2.3228,2.3229,2.323,2.3309,2.3311,2.3312,0,0,0,0,0,0,2.3181,2.3185,2.3218,2.3202,2.3205,2.3204,2.3215,2.3214,2.3219,2.3219,2.3219,2.3214,2.322,2.3223,2.3246,2.3264,2.323,2.3231,2.3308,2.331,2.3312,2.334,0,0,0,0,0,0,2.318,2.3185,2.3197,2.3202,2.3206,2.324,2.3216,2.3215,2.3222,2.322,2.3225,2.3225,2.322,2.3244,2.3248,2.3265,2.3232,2.3306,2.3309,2.3311,2.3338,2.3343,2.3347,0,0,0,0,0,2.3178,2.3204,2.3198,2.3202,2.3222,2.3241,2.3243,2.3237,2.3224,2.3236,2.3236,2.3225,2.3261,2.3247,2.3251,2.3269,2.3305,2.3308,2.3311,2.3335,2.3342,2.3347,0,0,0,0,0,0,2.3201,2.3205,2.3198,2.3227,2.3234,2.3237,2.3252,2.3244,2.3254,2.3251,2.3243,2.3245,2.327,2.3271,2.3255,2.33,2.3281,2.3285,2.3298,2.3304,2.3309,2.3308,2.3234,0,0,0,0,0,2.321,2.3225,2.3227,2.3252,2.3256,2.3254,2.3262,2.3257,2.3263,2.3266,2.3267,2.3274,2.3287,2.3296,2.3307,2.3338,2.3339,2.3352,2.3357,2.3361,2.3364,2.3381,2.3387,2.3321,2.3321,2.3321,0,0,2.3227,2.3231,2.3241,2.3257,2.3262,2.3277,2.3256,2.3274,2.3285,2.3268,2.3291,2.3292,2.3299,2.3326,2.3338,2.3328,2.3382,2.3364,2.3367,2.3368,2.3384,2.339,2.3396,2.3323,2.3323,2.3323,0,0,2.3267,2.3272,2.3293,2.3299,2.3306,2.3305,2.331,2.3315,2.3316,2.3338,2.3326,2.3339,2.3362,2.3367,2.3373,2.3416,2.3405,2.342,2.3444,2.346,2.3466,2.347,2.3486,2.3491,2.3423,2.3423,2.3423,0,2.3288,2.3311,2.3305,2.3324,2.3331,2.3317,2.3339,2.3344,2.3356,2.3361,2.335,2.3378,2.3382,2.341,2.3421,2.3426,2.3431,2.3419,2.3465,2.347,2.3474,2.3489,2.3495,2.3425,2.3424,2.3424,2.3424,0,2.3337,2.3353,2.337,2.3382,2.3391,2.3411,2.3407,2.3417,2.3412,2.3411,2.3434,2.3438,2.3451,2.3457,2.3451,2.3485,2.3479,2.3467,2.3447,2.3482,2.3496,2.3501,2.3427,2.3427,2.3426,2.3426,0,0,2.3391,2.34,2.3406,2.3412,2.3419,2.3432,2.3451,2.3464,2.3473,2.3481,2.3498,2.3517,2.3506,2.3513,2.3508,2.3522,2.3556,2.3508,2.3508,2.3517,2.3594,2.3603,2.361,2.3549,2.355,2.3551,2.3593,0,2.3431,2.3466,2.3461,2.3494,2.3509,2.3497,2.3514,2.352,2.352,2.3533,2.3533,2.3547,2.3531,2.3535,2.3549,2.3549,2.3571,2.3546,2.3564,2.3565,2.3563,2.3617,2.3626,2.3666,2.3599,2.3599,2.36,0,2.3483,2.3494,2.3529,2.3535,2.3541,2.3556,2.3568,2.3581,2.3588,2.3587,2.3595,2.3587,2.3606,2.3586,2.3613,2.3596,2.3603,2.3604,2.3605,2.3607,2.3585,2.362,2.3678,2.3684,2.3608,2.3608,2.3607,0,2.352,2.3543,2.3567,2.3572,2.358,2.3591,2.3594,2.36,2.3609,2.3619,2.3624,2.3636,2.3643,2.3652,2.3648,2.3634,2.3675,2.3655,2.3675,2.3675,2.3685,2.3684,2.3745,2.3689,2.3689,2.3689,2.3689,0,2.3566,2.3587,2.3584,2.3599,2.3623,2.3617,2.3641,2.3643,2.3648,2.3663,2.3652,2.3666,2.366,2.3673,2.367,2.3692,2.3695,2.3695,2.3694,2.3696,2.3696,2.3701,2.3698,2.369,2.369,2.369,2.3689,0,2.3611,2.361,2.3635,2.364,2.3642,2.366,2.3664,2.3678,2.3677,2.3696,2.37,2.3699,2.3714,2.3711,2.3727,2.3725,2.3754,2.3749,2.3752,2.3751,2.3771,2.3769,2.3837,2.3846,2.3784,2.3784,2.3785,0,2.3641,2.3657,2.3665,2.3674,2.3679,2.3694,2.3702,2.3697,2.3707,2.3716,2.3729,2.3743,2.3755,2.378,2.378,2.3793,2.3789,2.3812,2.379,2.3792,2.3789,2.3789,2.379,2.3816,2.3816,2.3817,2.3818,0,2.3693,2.3692,2.3705,2.3718,2.3729,2.3739,2.3748,2.3756,2.3752,2.3763,2.3779,2.3788,2.3805,2.382,2.3831,2.3834,2.3826,2.3824,2.383,2.3832,2.3833,2.3833,2.3763,2.3823,2.3822,2.3822,2.3821,2.3821,2.3732,2.3746,2.3754,2.3769,2.3775,2.3784,2.3797,2.3799,2.3812,2.3826,2.3822,2.384,2.3847,2.3862,2.3867,2.3881,2.3872,2.388,2.3882,2.3884,2.3887,2.3831,2.3883,2.3883,2.3883,2.3883,2.3882,0,2.3784,2.3788,2.3803,2.3816,2.3828,2.3819,2.3828,2.3839,2.3855,2.3863,2.3874,2.3893,2.3907,2.3909,2.3922,2.3933,2.3929,2.3937,2.3936,2.3937,2.3894,2.3888,2.3939,2.3939,2.3939,2.3939,2.3939,2.3939,2.3813,2.3837,2.3836,2.3863,2.3867,2.3886,2.3892,2.39,2.3906,2.3927,2.3939,2.3941,2.3946,2.396,2.3972,2.3972,2.3978,2.3987,2.3986,2.3945,2.394,2.3934,2.3929,2.3988,2.3988,2.4028,2.4028,2.4028]}]]